Location: The Saddle
(36.8333°N, 80.3417°W)
Time: 01:50:08
(UTC-05:00)

AO-7 - Pass Details

Date: 17 December 2023
Orbit: 1440 x 1458 km, 102.0° (Epoch: 01 March)

Event Time Altitude Azimuth Distance (km) Brightness Sun altitude
Rises 05:01:39 0° 22° (NNE) 4,542 ? -28.4°
Reaches altitude 10° 05:04:34 10° 27° (NNE) 3,563 ? -27.8°
Maximum altitude 05:12:37 52° 103° (ESE) 1,740 ? -26.3°
Drops below altitude 10° 05:20:38 10° 178° (S) 3,558 ? -24.7°
Sets 05:23:31 0° 183° (S) 4,536 ? -24.1°
